When you browse on this site, cookies collect data to enhance your experience and personalize the content and advertising you see.
Visit our Privacy Policy to learn more. By continuing to use the site, you agree to this use of cookies and data.
  • In Sweden
  • List of Countries
  • For 7 days
  • Water Temperature
  • Satellite Maps
  • Weather Map
  • Weather Widgets
  • user-avatar
    Login

    Hourly Weather Omelyaniv

    Today, 17 June, Monday

    Time Temperature Precipitation Wind Pressure Humidity
    00:00 +19°C° 0 mm 2 mps 751 mmHg 83%
    01:00 +19°C° 0 mm 2 mps 751 mmHg 84%
    02:00 +19°C° 0 mm 2 mps 751 mmHg 85%
    03:00 +19°C° 0 mm 2 mps 751 mmHg 86%
    04:00 +19°C° 0 mm 2 mps 751 mmHg 87%
    05:00 +20°C° 0 mm 1 mps 751 mmHg 88%
    06:00 +20°C° 0 mm 2 mps 751 mmHg 83%
    07:00 +23°C° 0 mm 2 mps 752 mmHg 79%
    08:00 +24°C° 0 mm 2 mps 752 mmHg 74%
    09:00 +25°C° 0 mm 2 mps 752 mmHg 69%
    10:00 +27°C° 0 mm 2 mps 752 mmHg 65%
    11:00 +28°C° 0 mm 2 mps 752 mmHg 60%
    12:00 +28°C° 0 mm 2 mps 752 mmHg 59%
    13:00 +29°C° 0 mm 2 mps 751 mmHg 58%
    14:00 +29°C° 0 mm 2 mps 751 mmHg 57%
    15:00 +29°C° 0 mm 2 mps 751 mmHg 59%
    16:00 +29°C° 0 mm 2 mps 751 mmHg 61%
    17:00 +29°C° 0 mm 2 mps 751 mmHg 63%
    18:00 +27°C° 0.5 mm 2 mps 751 mmHg 70%
    19:00 +25°C° 0.5 mm 2 mps 751 mmHg 76%
    20:00 +24°C° 0.5 mm 2 mps 751 mmHg 82%
    21:00 +23°C° 1.1 mm 2 mps 751 mmHg 85%
    22:00 +22°C° 1.1 mm 1 mps 751 mmHg 87%
    23:00 +22°C° 1.1 mm 1 mps 752 mmHg 90%

    Tomorrow, 18 June, Tuesday

    Time Temperature Precipitation Wind Pressure Humidity
    00:00 +20°C° 0.1 mm 2 mps 752 mmHg 92%
    01:00 +20°C° 0.1 mm 3 mps 752 mmHg 94%
    02:00 +19°C° 0.1 mm 3 mps 752 mmHg 96%
    03:00 +19°C° 0 mm 3 mps 752 mmHg 96%
    04:00 +18°C° 0 mm 3 mps 752 mmHg 95%
    05:00 +18°C° 0 mm 3 mps 752 mmHg 94%
    06:00 +19°C° 0 mm 3 mps 752 mmHg 91%
    07:00 +20°C° 0 mm 3 mps 752 mmHg 87%
    08:00 +21°C° 0 mm 3 mps 752 mmHg 83%
    09:00 +22°C° 0 mm 3 mps 752 mmHg 77%
    10:00 +25°C° 0 mm 3 mps 753 mmHg 71%
    11:00 +26°C° 0 mm 3 mps 753 mmHg 65%
    12:00 +27°C° 0 mm 3 mps 752 mmHg 63%
    13:00 +27°C° 0 mm 3 mps 752 mmHg 61%
    14:00 +28°C° 0 mm 3 mps 752 mmHg 60%
    15:00 +28°C° 0 mm 4 mps 752 mmHg 62%
    16:00 +27°C° 0 mm 4 mps 752 mmHg 64%
    17:00 +27°C° 0 mm 4 mps 752 mmHg 66%
    18:00 +26°C° 0 mm 3 mps 752 mmHg 72%
    19:00 +24°C° 0 mm 3 mps 752 mmHg 77%
    20:00 +22°C° 0 mm 3 mps 751 mmHg 83%
    21:00 +21°C° 0 mm 3 mps 752 mmHg 86%
    22:00 +20°C° 0 mm 3 mps 752 mmHg 89%
    23:00 +19°C° 0 mm 3 mps 752 mmHg 92%

    Day after tomorrow, 19 June, Wednesday

    Time Temperature Precipitation Wind Pressure Humidity
    00:00 +19°C° 0 mm 3 mps 752 mmHg 92%
    01:00 +18°C° 0 mm 3 mps 752 mmHg 93%
    02:00 +18°C° 0 mm 3 mps 752 mmHg 94%
    03:00 +18°C° 0 mm 3 mps 752 mmHg 94%
    04:00 +18°C° 0 mm 3 mps 752 mmHg 94%
    05:00 +18°C° 0 mm 3 mps 752 mmHg 93%
    06:00 +19°C° 0 mm 3 mps 753 mmHg 88%
    07:00 +21°C° 0 mm 3 mps 753 mmHg 83%
    08:00 +22°C° 0 mm 3 mps 753 mmHg 78%
    09:00 +25°C° 0 mm 3 mps 753 mmHg 73%
    10:00 +26°C° 0 mm 3 mps 753 mmHg 67%
    11:00 +27°C° 0 mm 3 mps 753 mmHg 62%
    12:00 +28°C° 0 mm 4 mps 753 mmHg 61%
    13:00 +28°C° 0 mm 4 mps 752 mmHg 59%
    14:00 +28°C° 0 mm 4 mps 752 mmHg 58%
    15:00 +28°C° 0 mm 4 mps 752 mmHg 60%
    16:00 +28°C° 0 mm 3 mps 752 mmHg 62%
    17:00 +28°C° 0 mm 3 mps 752 mmHg 64%
    18:00 +26°C° 0 mm 3 mps 752 mmHg 70%
    19:00 +25°C° 0 mm 3 mps 752 mmHg 75%
    20:00 +22°C° 0 mm 3 mps 752 mmHg 81%
    21:00 +21°C° 0 mm 3 mps 752 mmHg 83%
    22:00 +20°C° 0 mm 3 mps 752 mmHg 85%
    23:00 +19°C° 0 mm 3 mps 753 mmHg 87%

    20 June, Thursday

    Time Temperature Precipitation Wind Pressure Humidity
    00:00 +19°C° 0 mm 3 mps 753 mmHg 88%
    01:00 +18°C° 0 mm 3 mps 752 mmHg 88%
    02:00 +18°C° 0 mm 2 mps 752 mmHg 89%
    03:00 +18°C° 0 mm 2 mps 752 mmHg 89%
    04:00 +18°C° 0 mm 2 mps 753 mmHg 88%
    05:00 +18°C° 0 mm 2 mps 753 mmHg 88%
    06:00 +20°C° 0 mm 2 mps 753 mmHg 83%
    07:00 +21°C° 0 mm 3 mps 753 mmHg 79%
    08:00 +24°C° 0 mm 3 mps 753 mmHg 74%
    09:00 +25°C° 0 mm 3 mps 753 mmHg 69%
    10:00 +27°C° 0 mm 3 mps 753 mmHg 63%
    11:00 +28°C° 0 mm 3 mps 753 mmHg 58%
    12:00 +28°C° 0 mm 3 mps 753 mmHg 57%
    13:00 +28°C° 0 mm 3 mps 753 mmHg 56%
    14:00 +29°C° 0 mm 3 mps 752 mmHg 55%
    15:00 +28°C° 0 mm 3 mps 752 mmHg 57%
    16:00 +28°C° 0 mm 3 mps 752 mmHg 58%
    17:00 +28°C° 0 mm 3 mps 752 mmHg 60%
    18:00 +26°C° 0 mm 3 mps 752 mmHg 65%
    19:00 +25°C° 0 mm 2 mps 752 mmHg 70%
    20:00 +23°C° 0 mm 2 mps 752 mmHg 75%
    21:00 +21°C° 0 mm 2 mps 753 mmHg 76%
    22:00 +20°C° 0 mm 2 mps 753 mmHg 76%
    23:00 +20°C° 0 mm 2 mps 753 mmHg 77%

    21 June, Friday

    Time Temperature Precipitation Wind Pressure Humidity
    00:00 +19°C° 0 mm 2 mps 753 mmHg 81%
    01:00 +19°C° 0 mm 2 mps 753 mmHg 84%
    02:00 +19°C° 0 mm 2 mps 753 mmHg 88%
    03:00 +19°C° 0 mm 2 mps 753 mmHg 88%
    04:00 +19°C° 0 mm 2 mps 753 mmHg 89%
    05:00 +19°C° 0 mm 2 mps 753 mmHg 89%
    06:00 +21°C° 0 mm 2 mps 754 mmHg 84%
    07:00 +23°C° 0 mm 2 mps 754 mmHg 79%
    08:00 +25°C° 0 mm 2 mps 754 mmHg 73%
    09:00 +26°C° 0 mm 3 mps 754 mmHg 68%
    10:00 +27°C° 0 mm 3 mps 754 mmHg 62%
    11:00 +29°C° 0 mm 3 mps 754 mmHg 57%
    12:00 +29°C° 0 mm 3 mps 754 mmHg 57%
    13:00 +29°C° 0 mm 3 mps 753 mmHg 56%
    14:00 +29°C° 0 mm 3 mps 753 mmHg 56%
    15:00 +29°C° 0 mm 3 mps 753 mmHg 58%
    16:00 +29°C° 0 mm 3 mps 753 mmHg 59%
    17:00 +29°C° 0 mm 3 mps 752 mmHg 60%
    18:00 +27°C° 0 mm 3 mps 753 mmHg 65%
    19:00 +25°C° 0 mm 2 mps 753 mmHg 69%
    20:00 +24°C° 0 mm 2 mps 753 mmHg 74%
    21:00 +23°C° 0 mm 2 mps 753 mmHg 75%
    22:00 +21°C° 0 mm 2 mps 753 mmHg 76%
    23:00 +20°C° 0 mm 2 mps 753 mmHg 77%

    22 June, Saturday

    Time Temperature Precipitation Wind Pressure Humidity
    00:00 +20°C° 0 mm 2 mps 753 mmHg 79%
    01:00 +19°C° 0 mm 2 mps 753 mmHg 81%
    02:00 +19°C° 0 mm 2 mps 753 mmHg 83%
    03:00 +19°C° 0 mm 2 mps 753 mmHg 84%
    04:00 +19°C° 0 mm 2 mps 753 mmHg 86%
    05:00 +19°C° 0 mm 2 mps 753 mmHg 87%
    06:00 +21°C° 0 mm 2 mps 753 mmHg 81%
    07:00 +24°C° 0 mm 2 mps 754 mmHg 76%
    08:00 +25°C° 0 mm 3 mps 754 mmHg 70%
    09:00 +27°C° 0 mm 3 mps 754 mmHg 65%
    10:00 +28°C° 0 mm 3 mps 754 mmHg 61%
    11:00 +29°C° 0 mm 3 mps 754 mmHg 56%
    12:00 +29°C° 0 mm 3 mps 753 mmHg 55%
    13:00 +29°C° 0 mm 3 mps 753 mmHg 54%
    14:00 +30°C° 0 mm 3 mps 753 mmHg 53%
    15:00 +30°C° 0 mm 3 mps 753 mmHg 54%
    16:00 +29°C° 0 mm 3 mps 753 mmHg 56%
    17:00 +29°C° 0 mm 2 mps 752 mmHg 57%
    18:00 +28°C° 0 mm 2 mps 753 mmHg 61%
    19:00 +26°C° 0 mm 2 mps 753 mmHg 66%
    20:00 +24°C° 0 mm 2 mps 753 mmHg 70%
    21:00 +24°C° 0 mm 2 mps 753 mmHg 71%
    22:00 +23°C° 0 mm 2 mps 753 mmHg 72%
    23:00 +21°C° 0 mm 2 mps 753 mmHg 74%
    Show more